User: anonymous   Login
Location: Iesi
(43.5167°N, 13.2333°E)
Time: 01:51:49
(UTC+00:00)
Language:

Cosmos 540 Rocket - Orbit

View from above orbital plane
View from above orbital plane
View from above satellite
View from above satellite

Ground track
Ground track

The orbit data is extracted from the following two-line orbital elements,

1  6324U 72104B   20302.54973699 +.00000021 +00000-0 +13936-4 0  9997
2  6324 074.0782 347.4648 0008856 178.8992 181.2187 14.43504836512680
Epoch (UTC): 28 October 2020 13:11:37
Eccentricity: 0.0008856
inclination: 74.0782°
perigee height: 740 km
apogee height: 753 km
right ascension of ascending node: 347.4648°
argument of perigee: 178.8992°
revolutions per day: 14.43504836
mean anomaly at epoch: 181.2187°
orbit number at epoch: 51268

The dashed part of the orbit path shows where the satellite is in the earth's shadow,  

DLR